When you browse on this site, cookies collect data to enhance your experience and personalize the content and advertising you see.
Visit our Privacy Policy to learn more. By continuing to use the site, you agree to this use of cookies and data.
  • In Hungary
  • List of Countries
  • For 7 days
  • Water Temperature
  • Satellite Maps
  • Weather Map
  • News
  • Weather Widgets
  • user-avatar
    Login

    Hourly Weather Certaldo

    Today, 17 January, Thursday

    Time Temperature Precipitation Wind Pressure Humidity
    00:00 +7°C° 0.1 mm 2 mps 756 mmHg 92%
    01:00 +8°C° 0.1 mm 2 mps 756 mmHg 92%
    02:00 +8°C° 0.2 mm 2 mps 756 mmHg 91%
    03:00 +8°C° 0.2 mm 2 mps 756 mmHg 91%
    04:00 +8°C° 0.2 mm 2 mps 755 mmHg 91%
    05:00 +8°C° 0.2 mm 2 mps 755 mmHg 91%
    06:00 +8°C° 0.2 mm 2 mps 754 mmHg 91%
    07:00 +7°C° 0.2 mm 2 mps 754 mmHg 92%
    08:00 +8°C° 0.1 mm 2 mps 754 mmHg 91%
    09:00 +8°C° 0.1 mm 2 mps 754 mmHg 90%
    10:00 +9°C° 0.1 mm 2 mps 754 mmHg 89%
    11:00 +10°C° 0.1 mm 2 mps 754 mmHg 84%
    12:00 +12°C° 0.1 mm 2 mps 753 mmHg 79%
    13:00 +13°C° 0.1 mm 2 mps 753 mmHg 74%
    14:00 +13°C° 0.3 mm 2 mps 753 mmHg 75%
    15:00 +13°C° 0.3 mm 2 mps 752 mmHg 76%
    16:00 +13°C° 0.3 mm 1 mps 752 mmHg 77%
    17:00 +12°C° 0.2 mm 1 mps 751 mmHg 81%
    18:00 +10°C° 0.2 mm 1 mps 751 mmHg 86%
    19:00 +9°C° 0.2 mm 1 mps 751 mmHg 90%
    20:00 +9°C° 0.2 mm 1 mps 751 mmHg 92%
    21:00 +8°C° 0.2 mm 2 mps 750 mmHg 93%
    22:00 +7°C° 0.2 mm 2 mps 750 mmHg 95%
    23:00 +7°C° 0.1 mm 2 mps 750 mmHg 95%

    Tomorrow, 18 January, Friday

    Time Temperature Precipitation Wind Pressure Humidity
    00:00 +7°C° 0.1 mm 2 mps 750 mmHg 96%
    01:00 +7°C° 0.1 mm 2 mps 749 mmHg 96%
    02:00 +7°C° 0.2 mm 2 mps 749 mmHg 96%
    03:00 +8°C° 0.2 mm 1 mps 749 mmHg 97%
    04:00 +7°C° 0.2 mm 1 mps 748 mmHg 97%
    05:00 +8°C° 0.6 mm 1 mps 748 mmHg 97%
    06:00 +8°C° 0.6 mm 1 mps 748 mmHg 97%
    07:00 +8°C° 0.6 mm 1 mps 748 mmHg 96%
    08:00 +8°C° 0.1 mm 1 mps 749 mmHg 93%
    09:00 +9°C° 0.1 mm 1 mps 749 mmHg 91%
    10:00 +9°C° 0.1 mm 1 mps 750 mmHg 88%
    11:00 +10°C° 0 mm 1 mps 750 mmHg 78%
    12:00 +10°C° 0 mm 2 mps 750 mmHg 68%
    13:00 +12°C° 0 mm 2 mps 750 mmHg 59%
    14:00 +10°C° 0 mm 2 mps 750 mmHg 59%
    15:00 +11°C° 0 mm 1 mps 750 mmHg 59%
    16:00 +11°C° 0 mm 1 mps 751 mmHg 59%
    17:00 +10°C° 0 mm 1 mps 751 mmHg 64%
    18:00 +8°C° 0 mm 2 mps 751 mmHg 68%
    19:00 +8°C° 0 mm 2 mps 752 mmHg 72%
    20:00 +7°C° 0 mm 2 mps 752 mmHg 77%
    21:00 +7°C° 0 mm 2 mps 752 mmHg 81%
    22:00 +6°C° 0 mm 2 mps 753 mmHg 86%
    23:00 +6°C° 0 mm 2 mps 753 mmHg 86%

    Day after tomorrow, 19 January, Saturday

    Time Temperature Precipitation Wind Pressure Humidity
    00:00 +6°C° 0 mm 1 mps 753 mmHg 87%
    01:00 +6°C° 0 mm 1 mps 753 mmHg 87%
    02:00 +6°C° 0 mm 1 mps 753 mmHg 86%
    03:00 +6°C° 0 mm 1 mps 753 mmHg 86%
    04:00 +6°C° 0 mm 1 mps 753 mmHg 85%
    05:00 +6°C° 0 mm 1 mps 753 mmHg 86%
    06:00 +6°C° 0 mm 1 mps 753 mmHg 86%
    07:00 +5°C° 0 mm 1 mps 753 mmHg 87%
    08:00 +5°C° 0 mm 2 mps 753 mmHg 84%
    09:00 +6°C° 0 mm 2 mps 753 mmHg 80%
    10:00 +7°C° 0 mm 2 mps 754 mmHg 77%
    11:00 +8°C° 0 mm 2 mps 753 mmHg 74%
    12:00 +8°C° 0 mm 2 mps 753 mmHg 70%
    13:00 +9°C° 0 mm 2 mps 753 mmHg 67%
    14:00 +9°C° 0 mm 2 mps 753 mmHg 69%
    15:00 +9°C° 0 mm 2 mps 753 mmHg 70%
    16:00 +10°C° 0 mm 1 mps 753 mmHg 72%
    17:00 +8°C° 0 mm 1 mps 753 mmHg 76%
    18:00 +7°C° 0 mm 1 mps 753 mmHg 80%
    19:00 +6°C° 0 mm 1 mps 753 mmHg 84%
    20:00 +6°C° 0 mm 1 mps 753 mmHg 84%
    21:00 +6°C° 0 mm 1 mps 753 mmHg 85%
    22:00 +5°C° 0 mm 1 mps 753 mmHg 86%
    23:00 +5°C° 0 mm 1 mps 753 mmHg 86%

    20 January, Sunday

    Time Temperature Precipitation Wind Pressure Humidity
    00:00 +5°C° 0 mm 1 mps 753 mmHg 87%
    01:00 +4°C° 0 mm 1 mps 753 mmHg 88%
    02:00 +4°C° 0 mm 1 mps 753 mmHg 88%
    03:00 +4°C° 0 mm 1 mps 753 mmHg 89%
    04:00 +4°C° 0 mm 1 mps 753 mmHg 89%
    05:00 +4°C° 0 mm 1 mps 753 mmHg 89%
    06:00 +4°C° 0 mm 1 mps 753 mmHg 89%
    07:00 +3°C° 0 mm 1 mps 753 mmHg 90%
    08:00 +4°C° 0 mm 1 mps 753 mmHg 86%
    09:00 +6°C° 0 mm 1 mps 754 mmHg 82%
    10:00 +7°C° 0 mm 1 mps 754 mmHg 79%
    11:00 +8°C° 0 mm 1 mps 754 mmHg 74%
    12:00 +9°C° 0 mm 1 mps 754 mmHg 69%
    13:00 +10°C° 0 mm 1 mps 754 mmHg 64%
    14:00 +10°C° 0 mm 1 mps 754 mmHg 65%
    15:00 +9°C° 0 mm 0 mps 754 mmHg 66%
    16:00 +9°C° 0 mm 0 mps 753 mmHg 67%
    17:00 +9°C° 0 mm 1 mps 754 mmHg 71%
    18:00 +8°C° 0 mm 1 mps 754 mmHg 74%
    19:00 +7°C° 0 mm 1 mps 754 mmHg 78%
    20:00 +6°C° 0 mm 1 mps 754 mmHg 79%
    21:00 +6°C° 0 mm 1 mps 755 mmHg 81%
    22:00 +6°C° 0 mm 1 mps 755 mmHg 82%
    23:00 +5°C° 0 mm 1 mps 755 mmHg 84%

    21 January, Monday

    Time Temperature Precipitation Wind Pressure Humidity
    00:00 +5°C° 0 mm 1 mps 755 mmHg 86%
    01:00 +5°C° 0 mm 1 mps 755 mmHg 88%
    02:00 +4°C° 0 mm 1 mps 754 mmHg 88%
    03:00 +4°C° 0 mm 1 mps 754 mmHg 89%
    04:00 +4°C° 0 mm 1 mps 754 mmHg 89%
    05:00 +4°C° 0 mm 1 mps 754 mmHg 90%
    06:00 +4°C° 0 mm 1 mps 754 mmHg 90%
    07:00 +4°C° 0 mm 1 mps 754 mmHg 90%
    08:00 +4°C° 0 mm 2 mps 754 mmHg 85%
    09:00 +5°C° 0 mm 2 mps 755 mmHg 81%
    10:00 +6°C° 0 mm 2 mps 755 mmHg 76%
    11:00 +7°C° 0 mm 3 mps 755 mmHg 73%
    12:00 +8°C° 0 mm 3 mps 755 mmHg 69%
    13:00 +9°C° 0 mm 3 mps 755 mmHg 65%
    14:00 +9°C° 0 mm 3 mps 754 mmHg 65%
    15:00 +8°C° 0 mm 3 mps 754 mmHg 66%
    16:00 +8°C° 0 mm 3 mps 754 mmHg 67%
    17:00 +7°C° 0 mm 3 mps 754 mmHg 71%
    18:00 +5°C° 0 mm 2 mps 754 mmHg 76%
    19:00 +4°C° 0 mm 2 mps 753 mmHg 80%
    20:00 +3°C° 0 mm 2 mps 753 mmHg 81%
    21:00 +3°C° 0 mm 2 mps 753 mmHg 81%
    22:00 +3°C° 0 mm 2 mps 753 mmHg 82%
    23:00 +2°C° 0 mm 2 mps 753 mmHg 83%

    22 January, Tuesday

    Time Temperature Precipitation Wind Pressure Humidity
    00:00 +2°C° 0 mm 2 mps 753 mmHg 84%
    01:00 +2°C° 0 mm 2 mps 752 mmHg 85%
    02:00 +2°C° 0 mm 2 mps 752 mmHg 85%
    03:00 +2°C° 0 mm 2 mps 752 mmHg 85%
    04:00 +1°C° 0 mm 2 mps 751 mmHg 86%
    05:00 +1°C° 0 mm 2 mps 751 mmHg 85%
    06:00 +1°C° 0 mm 2 mps 751 mmHg 84%
    07:00 +1°C° 0 mm 2 mps 751 mmHg 82%
    08:00 +2°C° 0 mm 2 mps 751 mmHg 76%
    09:00 +3°C° 0 mm 2 mps 750 mmHg 70%
    10:00 +3°C° 0 mm 3 mps 750 mmHg 64%
    11:00 +5°C° 0 mm 2 mps 750 mmHg 59%
    12:00 +6°C° 0 mm 2 mps 750 mmHg 55%
    13:00 +7°C° 0 mm 2 mps 749 mmHg 51%
    14:00 +7°C° 0 mm 2 mps 749 mmHg 52%
    15:00 +8°C° 0 mm 1 mps 748 mmHg 53%
    16:00 +8°C° 0 mm 1 mps 748 mmHg 54%
    17:00 +6°C° 0 mm 1 mps 747 mmHg 58%
    18:00 +5°C° 0 mm 1 mps 747 mmHg 62%
    19:00 +3°C° 0 mm 1 mps 747 mmHg 66%
    20:00 +3°C° 0 mm 1 mps 746 mmHg 67%
    21:00 +3°C° 0 mm 1 mps 746 mmHg 69%
    22:00 +2°C° 0 mm 2 mps 746 mmHg 70%
    23:00 +2°C° 0 mm 2 mps 745 mmHg 70%
    Show more